Location: Poughquag
(41.6090°N, 73.6820°W)
Time: 21:02:39
(UTC-05:00)

A-11 Canister half - Visible Passes

Search period start: 15 January 2021 00:00
Search period end: 25 January 2021 00:00
Orbit: 1524 x 1684 km, 47.3° (Epoch: 15 January)

Date Brightness Start Highest point End Pass type
(mag) Time Alt. Az. Time Alt. Az. Time Alt. Az.
15 Jan 9.2 18:39:22 10° W 18:48:54 67° N 18:54:02 32° ENE visible
15 Jan 9.6 20:45:16 10° WNW 20:52:19 51° NW 20:52:19 51° NW visible
15 Jan 11.3 22:50:33 10° WNW 22:50:37 10° WNW 22:50:37 10° WNW visible
16 Jan 9.2 18:17:41 10° W 18:27:12 68° NNW 18:33:36 25° ENE visible
16 Jan 9.2 20:23:35 10° WNW 20:31:54 62° NNW 20:31:54 62° NNW visible
16 Jan 11.1 22:28:53 10° WNW 22:30:12 15° WNW 22:30:12 15° WNW visible
17 Jan 9.2 17:56:00 10° W 18:05:29 69° NNW 18:13:12 19° ENE visible
17 Jan 9.0 20:01:54 10° WNW 20:11:30 67° N 20:11:30 67° N visible
17 Jan 10.8 22:07:13 10° WNW 22:09:48 21° WNW 22:09:48 21° WNW visible
18 Jan 9.2 17:34:19 10° W 17:43:47 70° NNW 17:52:48 13° ENE visible
18 Jan 9.0 19:40:14 10° WNW 19:49:51 67° N 19:51:07 62° NE visible
18 Jan 10.4 21:45:33 10° WNW 21:49:24 28° WNW 21:49:24 28° WNW visible
19 Jan 9.2 17:12:38 10° W 17:22:05 71° NNW 17:31:54 10° ENE visible
19 Jan 9.1 19:18:33 10° WNW 19:28:08 66° N 19:30:44 51° ENE visible
19 Jan 10.1 21:23:52 10° WNW 21:29:02 37° WNW 21:29:02 37° WNW visible
20 Jan 9.1 18:56:52 10° WNW 19:06:26 65° N 19:10:23 40° ENE visible
20 Jan 9.7 21:02:13 10° WNW 21:08:41 48° WNW 21:08:41 48° WNW visible
21 Jan 9.1 18:35:11 10° WNW 18:44:43 64° N 18:50:04 30° E visible
21 Jan 9.3 20:40:34 10° WNW 20:48:23 63° WNW 20:48:23 63° WNW visible
21 Jan 11.2 22:46:21 10° WNW 22:46:42 11° WNW 22:46:42 11° WNW visible
22 Jan 9.2 18:13:31 10° WNW 18:23:00 64° N 18:29:48 22° E visible
22 Jan 9.0 20:18:53 10° WNW 20:28:06 80° WSW 20:28:06 80° WSW visible
22 Jan 11.0 22:24:35 10° WNW 22:26:25 16° W 22:26:25 16° W visible
23 Jan 9.2 17:51:49 10° WNW 18:01:17 63° N 18:09:34 16° E visible
23 Jan 8.9 19:57:14 10° WNW 20:06:57 86° SSW 20:07:53 77° SE visible
23 Jan 10.7 22:02:51 10° WNW 22:06:12 22° W 22:06:12 22° W visible
24 Jan 9.2 17:30:09 10° WNW 17:39:34 63° N 17:49:19 10° E visible
24 Jan 8.9 19:35:35 10° WNW 19:45:17 88° SSW 19:47:44 58° ESE visible
24 Jan 10.4 21:41:07 10° WNW 21:46:03 28° W 21:46:03 28° W visible
